Location: Raleigh
(35.7720°N, 78.6390°W)
Time: 13:45:48
(UTC-04:00)

JAS-2 - Visible Passes

Search period start: 28 March 2015 00:00
Search period end: 07 April 2015 00:00
Orbit: 801 x 1321 km, 98.5° (Epoch: 27 March)

Date Brightness Start Highest point End Pass type
(mag) Time Alt. Az. Time Alt. Az. Time Alt. Az.
28 Mar 12.1 04:12:48 10° NE 04:18:05 21° E 04:23:23 10° SE visible
28 Mar 10.0 05:56:08 10° N 06:03:53 69° WNW 06:10:56 10° SSW visible
29 Mar 10.8 05:01:26 10° NNE 05:08:53 50° E 05:15:42 10° S visible
30 Mar 12.2 04:08:16 10° NE 04:13:09 19° E 04:18:07 10° SE visible
30 Mar 9.9 05:51:21 10° N 05:59:03 73° WNW 06:06:02 10° SSW visible
31 Mar 10.9 04:56:44 10° NNE 05:04:01 47° E 05:10:39 10° S visible
01 Apr 12.2 04:03:48 10° NE 04:08:12 17° E 04:12:47 10° SE visible
01 Apr 9.9 05:46:34 10° N 05:54:14 77° WNW 06:01:07 10° SSW visible
02 Apr 11.0 04:52:02 10° NNE 04:59:07 43° E 05:05:35 10° SSE visible
03 Apr 12.2 03:59:22 10° NE 04:03:15 16° E 04:07:22 10° ESE visible
03 Apr 9.9 05:41:47 10° N 05:49:24 82° WNW 05:56:11 10° SSW visible
04 Apr 11.1 04:47:21 10° NNE 04:54:13 40° E 05:00:29 10° SSE visible
04 Apr 10.5 06:32:25 10° N 06:39:09 36° WNW 06:45:11 10° SW visible
05 Apr 12.3 03:55:02 10° ENE 03:58:16 14° E 04:01:51 10° ESE visible
05 Apr 9.9 05:37:01 10° NNE 05:44:33 87° WNW 05:51:13 10° SSW visible
06 Apr 11.2 04:42:40 10° NNE 04:49:18 37° E 04:55:22 10° SSE visible
06 Apr 10.4 06:27:35 10° N 06:34:20 38° WNW 06:40:21 10° SW visible
